Time,TemperatureF,DewpointF,PressureIn,WindDirection,WindDirectionDegrees,WindSpeedMPH,WindSpeedGustMPH,Humidity,HourlyPrecipIn,Conditions,Clouds,dailyrainin,SolarRadiationWatts/m^2,SoftwareType,DateUTC
2013-05-28 00:02:00,45.0,44.0,-100.00,SSW,204,2.0,15.0,96,0.16,,,0.22,0.000000,,2013-05-28 06:02:00,
2013-05-28 00:11:00,45.0,44.0,-100.00,SSW,204,2.0,15.0,96,0.16,,,0.22,0.000000,,2013-05-28 06:11:00,
2013-05-28 00:21:00,45.0,44.0,-100.00,SSW,204,2.0,15.0,96,0.16,,,0.22,0.000000,,2013-05-28 06:21:00,
2013-05-28 00:52:00,43.0,43.0,-100.00,SSE,166,0.0,5.0,99,0.05,,,0.27,0.000000,,2013-05-28 06:52:00,
2013-05-28 01:01:00,43.0,43.0,-100.00,SSE,166,0.0,5.0,99,0.05,,,0.27,0.000000,,2013-05-28 07:01:00,
2013-05-28 01:11:00,43.0,43.0,-100.00,SSE,166,0.0,5.0,99,0.05,,,0.27,0.000000,,2013-05-28 07:11:00,
2013-05-28 01:21:00,43.0,43.0,-100.00,SSE,166,0.0,5.0,99,0.05,,,0.27,0.000000,,2013-05-28 07:21:00,
2013-05-28 01:52:00,43.0,43.0,-100.00,SSE,165,0.0,0.0,100,0.01,,,0.28,0.000000,,2013-05-28 07:52:00,
2013-05-28 02:02:00,43.0,43.0,-100.00,SSE,165,0.0,0.0,100,0.01,,,0.28,0.000000,,2013-05-28 08:02:00,
2013-05-28 02:11:00,43.0,43.0,-100.00,SSE,165,0.0,0.0,100,0.01,,,0.28,0.000000,,2013-05-28 08:11:00,
2013-05-28 02:21:00,43.0,43.0,-100.00,SSE,165,0.0,0.0,100,0.01,,,0.28,0.000000,,2013-05-28 08:21:00,
2013-05-28 02:52:00,43.0,43.0,-100.00,NE,39,0.0,0.0,100,0.00,,,0.28,0.000000,,2013-05-28 08:52:00,
2013-05-28 03:01:00,43.0,43.0,-100.00,NE,39,0.0,0.0,100,0.00,,,0.28,0.000000,,2013-05-28 09:01:00,
2013-05-28 03:11:00,43.0,43.0,-100.00,NE,39,0.0,0.0,100,0.00,,,0.28,0.000000,,2013-05-28 09:11:00,
2013-05-28 03:21:00,43.0,43.0,-100.00,NE,39,0.0,0.0,100,0.00,,,0.28,0.000000,,2013-05-28 09:21:00,
2013-05-28 03:54:00,43.0,43.0,-100.00,NE,41,0.0,0.0,100,0.01,,,0.29,0.000000,,2013-05-28 09:54:00,
2013-05-28 04:03:00,43.0,43.0,-100.00,NE,41,0.0,0.0,100,0.01,,,0.29,0.000000,,2013-05-28 10:03:00,
2013-05-28 04:12:00,43.0,43.0,-100.00,NE,41,0.0,0.0,100,0.01,,,0.29,0.000000,,2013-05-28 10:12:00,
2013-05-28 04:22:00,43.0,43.0,-100.00,NE,41,0.0,0.0,100,0.01,,,0.29,0.000000,,2013-05-28 10:22:00,
2013-05-28 04:53:00,42.0,42.0,-100.00,NE,47,0.0,0.0,100,0.02,,,0.31,0.000000,,2013-05-28 10:53:00,
2013-05-28 05:02:00,42.0,42.0,-100.00,NE,47,0.0,0.0,100,0.02,,,0.31,0.000000,,2013-05-28 11:02:00,
2013-05-28 05:11:00,42.0,42.0,-100.00,NE,47,0.0,0.0,100,0.02,,,0.31,0.000000,,2013-05-28 11:11:00,
2013-05-28 05:22:00,42.0,42.0,-100.00,NE,47,0.0,0.0,100,0.02,,,0.31,0.000000,,2013-05-28 11:22:00,
2013-05-28 05:52:00,42.0,42.0,-100.00,East,80,0.0,0.0,100,0.03,,,0.34,0.000000,,2013-05-28 11:52:00,
2013-05-28 06:01:00,42.0,42.0,-100.00,East,80,0.0,0.0,100,0.03,,,0.34,0.000000,,2013-05-28 12:01:00,
2013-05-28 06:11:00,42.0,42.0,-100.00,East,80,0.0,0.0,100,0.03,,,0.34,0.000000,,2013-05-28 12:11:00,
2013-05-28 06:21:00,42.0,42.0,-100.00,East,80,0.0,0.0,100,0.03,,,0.34,0.000000,,2013-05-28 12:21:00,
2013-05-28 06:52:00,43.0,43.0,-100.00,NE,38,0.0,0.0,100,0.01,,,0.35,0.000000,,2013-05-28 12:52:00,
2013-05-28 07:01:00,43.0,43.0,-100.00,NE,38,0.0,0.0,100,0.01,,,0.35,0.000000,,2013-05-28 13:01:00,
2013-05-28 07:11:00,43.0,43.0,-100.00,NE,38,0.0,0.0,100,0.01,,,0.35,0.000000,,2013-05-28 13:11:00,
2013-05-28 07:21:00,43.0,43.0,-100.00,NE,38,0.0,0.0,100,0.01,,,0.35,0.000000,,2013-05-28 13:21:00,
2013-05-28 07:52:00,42.0,42.0,-100.00,North,5,0.0,0.0,100,0.00,,,0.35,12.000000,,2013-05-28 13:52:00,
2013-05-28 08:01:00,42.0,42.0,-100.00,North,5,0.0,0.0,100,0.00,,,0.35,12.000000,,2013-05-28 14:01:00,
2013-05-28 08:11:00,42.0,42.0,-100.00,North,5,0.0,0.0,100,0.00,,,0.35,12.000000,,2013-05-28 14:11:00,
2013-05-28 08:21:00,42.0,42.0,-100.00,North,5,0.0,0.0,100,0.00,,,0.35,12.000000,,2013-05-28 14:21:00,
2013-05-28 08:52:00,45.0,44.0,-100.00,North,350,0.0,0.0,95,0.00,,,0.35,69.000000,,2013-05-28 14:52:00,
2013-05-28 09:01:00,45.0,44.0,-100.00,North,350,0.0,0.0,95,0.00,,,0.35,69.000000,,2013-05-28 15:01:00,
2013-05-28 09:11:00,45.0,44.0,-100.00,North,350,0.0,0.0,95,0.00,,,0.35,69.000000,,2013-05-28 15:11:00,
2013-05-28 09:21:00,45.0,44.0,-100.00,North,350,0.0,0.0,95,0.00,,,0.35,69.000000,,2013-05-28 15:21:00,
2013-05-28 09:53:00,47.0,44.0,-100.00,North,357,0.0,0.0,89,0.00,,,0.35,133.000000,,2013-05-28 15:53:00,
2013-05-28 10:03:00,47.0,44.0,-100.00,North,357,0.0,0.0,89,0.00,,,0.35,133.000000,,2013-05-28 16:03:00,
2013-05-28 10:12:00,47.0,44.0,-100.00,North,357,0.0,0.0,89,0.00,,,0.35,133.000000,,2013-05-28 16:12:00,
2013-05-28 10:22:00,47.0,44.0,-100.00,North,357,0.0,0.0,89,0.00,,,0.35,133.000000,,2013-05-28 16:22:00,
2013-05-28 10:52:00,50.0,44.0,-100.00,North,350,0.0,3.0,80,0.00,,,-99.99,273.000000,,2013-05-28 16:52:00,
2013-05-28 11:02:00,50.0,44.0,-100.00,North,350,0.0,3.0,80,0.00,,,-99.99,273.000000,,2013-05-28 17:02:00,
2013-05-28 11:12:00,50.0,44.0,-100.00,North,350,0.0,3.0,80,0.00,,,-99.99,273.000000,,2013-05-28 17:12:00,
2013-05-28 11:22:00,50.0,44.0,-100.00,North,350,0.0,3.0,80,0.00,,,-99.99,273.000000,,2013-05-28 17:22:00,
2013-05-28 11:52:00,51.0,41.0,-100.00,North,354,1.0,6.0,69,0.00,,,0.35,387.000000,,2013-05-28 17:52:00,
2013-05-28 12:01:00,51.0,41.0,-100.00,North,354,1.0,6.0,69,0.00,,,0.35,387.000000,,2013-05-28 18:01:00,
2013-05-28 12:11:00,51.0,41.0,-100.00,North,354,1.0,6.0,69,0.00,,,0.35,387.000000,,2013-05-28 18:11:00,
2013-05-28 12:21:00,51.0,41.0,-100.00,North,354,1.0,6.0,69,0.00,,,0.35,387.000000,,2013-05-28 18:21:00,
2013-05-28 12:52:00,55.0,41.0,-100.00,NNW,329,1.0,6.0,59,0.00,,,0.35,574.000000,,2013-05-28 18:52:00,
2013-05-28 13:01:00,55.0,41.0,-100.00,NNW,329,1.0,6.0,59,0.00,,,0.35,574.000000,,2013-05-28 19:01:00,
2013-05-28 13:11:00,55.0,41.0,-100.00,NNW,329,1.0,6.0,59,0.00,,,0.35,574.000000,,2013-05-28 19:11:00,
2013-05-28 13:21:00,55.0,41.0,-100.00,NNW,329,1.0,6.0,59,0.00,,,0.35,574.000000,,2013-05-28 19:21:00,
2013-05-28 13:52:00,56.0,42.0,-100.00,North,10,7.0,10.0,59,0.00,,,0.35,698.000000,,2013-05-28 19:52:00,
2013-05-28 14:01:00,56.0,42.0,-100.00,North,10,7.0,10.0,59,0.00,,,0.35,698.000000,,2013-05-28 20:01:00,
2013-05-28 14:11:00,56.0,42.0,-100.00,North,10,7.0,10.0,59,0.00,,,0.35,698.000000,,2013-05-28 20:11:00,
2013-05-28 14:22:00,56.0,42.0,-100.00,North,10,7.0,10.0,59,0.00,,,0.35,698.000000,,2013-05-28 20:22:00,
2013-05-28 14:52:00,58.0,39.0,-100.00,North,355,6.0,18.0,50,0.00,,,0.34,615.000000,,2013-05-28 20:52:00,
2013-05-28 15:01:00,58.0,39.0,-100.00,North,355,6.0,18.0,50,0.00,,,0.34,615.000000,,2013-05-28 21:01:00,
2013-05-28 15:11:00,58.0,39.0,-100.00,North,355,6.0,18.0,50,0.00,,,0.34,615.000000,,2013-05-28 21:11:00,
2013-05-28 15:21:00,58.0,39.0,-100.00,North,355,6.0,18.0,50,0.00,,,0.34,615.000000,,2013-05-28 21:21:00,
2013-05-28 15:53:00,54.0,47.0,-100.00,SSE,156,1.0,15.0,78,0.01,,,0.34,792.000000,,2013-05-28 21:53:00,
2013-05-28 16:02:00,54.0,47.0,-100.00,SSE,156,1.0,15.0,78,0.01,,,0.34,792.000000,,2013-05-28 22:02:00,
2013-05-28 16:12:00,54.0,47.0,-100.00,SSE,156,1.0,15.0,78,0.01,,,0.34,792.000000,,2013-05-28 22:12:00,
2013-05-28 16:22:00,54.0,47.0,-100.00,SSE,156,1.0,15.0,78,0.01,,,0.34,792.000000,,2013-05-28 22:22:00,
2013-05-28 16:52:00,49.0,42.0,-100.00,SW,220,4.0,10.0,78,0.03,,,0.37,140.000000,,2013-05-28 22:52:00,
2013-05-28 17:02:00,49.0,42.0,-100.00,SW,220,4.0,10.0,78,0.03,,,0.37,140.000000,,2013-05-28 23:02:00,
2013-05-28 17:52:00,51.0,42.0,-100.00,NW,305,2.0,16.0,70,-99.99,,,0.36,137.000000,,2013-05-28 23:52:00,
2013-05-28 18:02:00,51.0,42.0,-100.00,NW,305,2.0,16.0,70,-99.99,,,0.36,137.000000,,2013-05-29 00:02:00,
2013-05-28 18:11:00,51.0,42.0,-100.00,NW,305,2.0,16.0,70,-99.99,,,0.36,137.000000,,2013-05-29 00:11:00,
2013-05-28 18:21:00,51.0,42.0,-100.00,NW,305,2.0,16.0,70,-99.99,,,0.36,137.000000,,2013-05-29 00:21:00,
2013-05-28 18:52:00,52.0,41.0,-100.00,South,185,1.0,9.0,67,0.00,,,0.36,130.000000,,2013-05-29 00:52:00,
2013-05-28 19:01:00,52.0,41.0,-100.00,South,185,1.0,9.0,67,0.00,,,0.36,130.000000,,2013-05-29 01:01:00,
2013-05-28 19:11:00,52.0,41.0,-100.00,South,185,1.0,9.0,67,0.00,,,0.36,130.000000,,2013-05-29 01:11:00,
2013-05-28 19:21:00,52.0,41.0,-100.00,South,185,1.0,9.0,67,0.00,,,0.36,130.000000,,2013-05-29 01:21:00,
2013-05-28 19:52:00,57.0,42.0,-100.00,North,2,5.0,6.0,57,0.00,,,0.36,385.000000,,2013-05-29 01:52:00,
2013-05-28 20:02:00,57.0,42.0,-100.00,North,2,5.0,6.0,57,0.00,,,0.36,385.000000,,2013-05-29 02:02:00,
2013-05-28 20:12:00,57.0,42.0,-100.00,North,2,5.0,6.0,57,0.00,,,0.36,385.000000,,2013-05-29 02:12:00,
2013-05-28 20:21:00,57.0,42.0,-100.00,North,2,5.0,6.0,57,0.00,,,0.36,385.000000,,2013-05-29 02:21:00,
2013-05-28 20:52:00,57.0,41.0,-100.00,NNE,18,2.0,11.0,56,0.00,,,0.36,195.000000,,2013-05-29 02:52:00,
2013-05-28 21:01:00,57.0,41.0,-100.00,NNE,18,2.0,11.0,56,0.00,,,0.36,195.000000,,2013-05-29 03:01:00,
2013-05-28 21:11:00,57.0,41.0,-100.00,NNE,18,2.0,11.0,56,0.00,,,0.36,195.000000,,2013-05-29 03:11:00,
2013-05-28 21:21:00,57.0,41.0,-100.00,NNE,18,2.0,11.0,56,0.00,,,0.36,195.000000,,2013-05-29 03:21:00,
2013-05-28 21:53:00,53.0,43.0,-100.00,South,169,0.0,8.0,68,0.00,,,0.36,50.000000,,2013-05-29 03:53:00,
2013-05-28 22:02:00,53.0,43.0,-100.00,South,169,0.0,8.0,68,0.00,,,0.36,50.000000,,2013-05-29 04:02:00,
2013-05-28 22:12:00,53.0,43.0,-100.00,South,169,0.0,8.0,68,0.00,,,0.36,50.000000,,2013-05-29 04:12:00,
2013-05-28 22:23:00,53.0,43.0,-100.00,South,169,0.0,8.0,68,0.00,,,0.36,50.000000,,2013-05-29 04:23:00,
2013-05-28 22:52:00,50.0,40.0,-100.00,SSE,164,0.0,4.0,68,0.00,,,0.33,2.000000,,2013-05-29 04:52:00,
2013-05-28 23:02:00,50.0,40.0,-100.00,SSE,164,0.0,4.0,68,0.00,,,0.33,2.000000,,2013-05-29 05:02:00,
2013-05-28 23:12:00,50.0,40.0,-100.00,SSE,164,0.0,4.0,68,0.00,,,0.33,2.000000,,2013-05-29 05:12:00,
2013-05-28 23:22:00,50.0,40.0,-100.00,SSE,164,0.0,4.0,68,0.00,,,0.33,2.000000,,2013-05-29 05:22:00,
2013-05-28 23:52:00,47.0,40.0,-100.00,SSW,208,0.0,3.0,77,0.00,,,0.17,0.000000,,2013-05-29 05:52:00,